Location: Newark
(40.7066°N, 111.8219°W)
Time: 02:11:16
(UTC+00:00)

Transit 2A Rocket - Pass Details

Date: 24 November 2019
Orbit: 594 x 909 km, 66.7° (Epoch: 08 December)

Event Time Altitude Azimuth Distance (km) Brightness Sun altitude
Rises 12:45:37 0° 329° (NNW) 2,855 - -18.4°
Reaches altitude 10° 12:47:49 10° 330° (NNW) 1,966 - -18.0°
Exits shadow 12:49:34 24° 329° (NNW) 1,287 5.8 -17.7°
Maximum altitude 12:52:13 86° 242° (WSW) 638 4.5 -17.2°
Drops below altitude 10° 12:56:54 10° 153° (SSE) 2,084 7.8 -16.4°
Sets 12:59:17 0° 153° (SSE) 3,042 8.7 -15.9°
